Location: Montreal
(45.5000°N, 73.5833°W)
Time: 13:35:11
(UTC-05:00)

Vanguard 3 - All Passes

Search period start: 18 December 2017 00:00
Search period end: 28 December 2017 00:00
Orbit: 509 x 3263 km, 33.3° (Epoch: 18 December)

Date Brightness Start Highest point End Pass type
(mag) Time Alt. Az. Time Alt. Az. Time Alt. Az.
18 Dec - 09:57:42 10° SSW 10:01:08 14° SSE 10:03:55 10° SE daylight
18 Dec - 12:08:56 10° SW 12:12:13 17° S 12:14:55 10° SE daylight
18 Dec - 14:22:25 10° SSW 14:22:47 10° SSW 14:23:10 10° S daylight
19 Dec - 08:44:31 10° S 08:47:30 12° SSE 08:50:04 10° SE daylight
19 Dec - 10:54:41 10° SW 10:59:00 19° S 11:02:17 10° SE daylight
19 Dec - 13:07:14 10° SW 13:09:46 15° SSW 13:12:02 10° SSE daylight
20 Dec - 09:40:18 10° SSW 09:45:35 19° S 09:49:27 10° SE daylight
20 Dec - 11:52:43 10° SW 11:56:43 20° S 11:59:50 10° SE daylight
21 Dec - 08:26:06 10° SSW 08:31:52 17° SSE 08:36:10 10° SE daylight
21 Dec - 10:37:59 10° SW 10:43:29 23° S 10:47:23 10° SE daylight
21 Dec - 12:51:22 10° SW 12:54:14 15° SSW 12:56:40 10° SSE daylight
22 Dec - 07:12:39 10° S 07:17:50 14° SSE 07:22:00 10° SE daylight
22 Dec - 09:23:05 10° SW 09:29:59 24° S 09:34:40 10° ESE daylight
22 Dec - 11:36:25 10° WSW 11:41:12 22° S 11:44:42 10° SE daylight
23 Dec - 06:03:04 10° SSE 06:03:32 10° SSE 06:03:58 10° SSE visible
23 Dec - 08:08:15 10° SSW 08:16:09 22° SSE 08:21:37 10° ESE daylight
23 Dec - 10:21:16 10° SW 10:27:55 27° S 10:32:21 10° SE daylight
23 Dec - 12:35:25 10° WSW 12:38:39 16° SSW 12:41:18 10° SSE daylight
24 Dec - 06:53:53 10° SSW 07:01:59 19° SSE 07:07:55 10° ESE visible
24 Dec - 09:05:54 10° SW 09:14:19 28° S 09:19:44 10° ESE daylight
24 Dec - 11:20:02 10° WSW 11:25:37 24° SSW 11:29:32 10° SE daylight
25 Dec - 05:40:48 10° S 05:47:30 15° SSE 05:52:57 10° ESE visible
25 Dec - 07:50:33 10° SW 08:00:21 27° SSE 08:06:46 10° ESE daylight
25 Dec - 10:04:29 10° WSW 10:12:18 30° S 10:17:16 10° SE daylight
25 Dec - 12:19:21 10° WSW 12:23:02 16° SSW 12:25:57 10° SSE daylight
26 Dec - 06:35:34 10° SSW 06:46:01 24° SSE 06:53:15 10° ESE visible
26 Dec - 08:48:42 10° SW 08:58:35 33° S 09:04:40 10° ESE daylight
26 Dec - 11:03:33 10° WSW 11:09:59 26° SSW 11:14:20 10° SE daylight
27 Dec - 05:21:34 10° S 05:31:21 19° SSE 05:38:48 10° ESE visible
27 Dec - 07:32:55 10° SW 07:44:27 32° S 07:51:44 10° ESE daylight
27 Dec - 09:47:38 10° WSW 09:56:35 34° S 10:02:07 10° SE daylight
27 Dec - 12:03:11 10° WSW 12:07:20 17° SSW 12:10:32 10° S daylight
